Regional Weather Roundup
Issued by NWS

Home | Current Version | Previous Version | Text Only | Print | Product List | Glossary Off
Versions: 1 2 3 4 5 6 7 8 9 10 11 12 13 14 15 16 17 18 19 20 21 22 23 24 25 26 27 28 29 30 31 32 33 34 35 36 37 38 39 40 41 42 43 44 45 46 47 48 49 50

963
ASUS43 KLMK 261702
RWRKY
KENTUCKY REGIONAL WEATHER ROUNDUP
NATIONAL WEATHER SERVICE LOUISVILLE KY
100 PM EDT SAT MAY 26 2018

NOTE "FAIR" INDICATES FEW OR NO CLOUDS BELOW 12,000 FEET
WITH NO SIGNIFICANT WEATHER AND/OR OBSTRUCTIONS TO VISIBILITY.

KYZ001>023-026-027-061>063-070>075-261800-
WESTERN AND SOUTH CENTRAL KENTUCKY

CITY           SKY/WX    TMP DP  RH WIND       PRES   REMARKS
PADUCAH        FAIR      79  71  76 VRB5      29.87F
HENDERSON      FAIR      83  69  62 SW12G18   29.87S
OWENSBORO      PTSUNNY   82  70  66 S9        29.88S
HOPKINSVILLE   PTSUNNY   79  71  75 S7        29.89F
BOWLING GREEN  FAIR      80  70  71 S9        29.90F
GLASGOW        NOT AVBL
$$

KYZ024-025-028>034-038-045-046-053-261800-
NORTH CENTRAL KENTUCKY

CITY           SKY/WX    TMP DP  RH WIND       PRES   REMARKS
LOUISVILLE/SDF PTSUNNY   83  68  60 S9        29.87F
LOUISVILLE/LOU FAIR      83  72  69 S8        29.88F
FORT KNOX      FAIR      80  69  70 S9        29.91S
$$

KYZ035>037-039>044-047>052-055>060-089>105-261800-
NORTHEAST KENTUCKY

CITY           SKY/WX    TMP DP  RH WIND       PRES   REMARKS
LEXINGTON      FAIR      82  68  62 S8        29.91F
COVINGTON      PTSUNNY   81  67  62 S12       29.87F
FRANKFORT      PTSUNNY   80  68  66 VRB6      29.89F
$$

KYZ054-064>069-076>088-106>120-261800-
SOUTHEAST KENTUCKY

CITY           SKY/WX    TMP DP  RH WIND       PRES   REMARKS
JACKSON        FAIR      81  68  64 CALM      29.96S
LONDON         PTSUNNY   77  69  76 S7        29.95F
SOMERSET       NOT AVBL
MIDDLESBORO    CLOUDY    79  67  68 CALM      29.96F
MONTICELLO     PTSUNNY   80  69  69 W12G17    29.96F
$$





USA.gov is the U.S. government's official web portal to all federal, state and local government web resources and services.